Regional Weather Roundup
Issued by NWS

Home | Current Version | Previous Version | Text Only | Print | Product List | Glossary On
Versions: 1 2 3 4 5 6 7 8 9 10 11 12 13 14 15 16 17 18 19 20 21 22 23 24 25 26 27 28 29 30 31 32 33 34 35 36 37 38 39 40 41 42 43 44 45 46 47 48 49 50
000
ASUS43 KTOP 191908
RWRKS

WEATHER ROUNDUP FOR KANSAS
NATIONAL WEATHER SERVICE GOODLAND KS
200 PM CDT SUN APR 19 2015

NOTE:  "FAIR" INDICATES FEW OR NO CLOUDS BELOW 12,000 FEET WITH NO
SIGNIFICANT WEATHER AND/OR OBSTRUCTIONS TO VISIBILITY.

KSZ001>006-013>018-027>032-041>047-192000-
NORTHWEST KANSAS

CITY           SKY/WX    TMP DP  RH WIND       PRES   REMARKS
GOODLAND       CLOUDY    47  29  49 N28G37    30.03F
HAYS           CLOUDY    46  36  66 N29G35    29.94S
HILL CITY      CLOUDY    52  33  48 N24G35    29.97S
RUSSELL        LGT RAIN  49  41  74 N33G44    29.91R
$$

KSZ061>065-074>080-084>089-192000-
SOUTHWEST KANSAS

CITY           SKY/WX    TMP DP  RH WIND       PRES   REMARKS
DODGE CITY     CLOUDY    50  41  71 N31G43    29.95S
ELKHART          N/A    N/A N/A N/A MISG        N/A
GARDEN CITY    PTSUNNY   50  38  63 N28G33    29.97F
GREAT BEND     CLOUDY    48  39  71 N37G43    29.91R
LIBERAL        CLOUDY    54  37  54 N32G40    29.99R
PRATT          PTSUNNY   50  45  81 N32G43    29.88R
$$

KSZ066>073-081>083-090>101-192000-
SOUTHEAST KANSAS

CITY           SKY/WX    TMP DP  RH WIND       PRES   REMARKS
CHANUTE        CLOUDY    63  54  72 W9        29.71S
COFFEYVILLE    CLOUDY    61  56  83 VRB3      29.71F
HUTCHINSON     LGT RAIN  53  48  83 N24G32    29.81R
MEDICINE LODGE   N/A     56  47  71 N33G44    29.79S
NEWTON         PTSUNNY   63  48  59 NW22G28   29.76S
PARSONS        CLOUDY    62  54  74 W8        29.72F
WICHITA INTL   LGT RAIN  66  51  58 NW15      29.73F
WICHITA JABRA  PTSUNNY   65  51  60 NW14G20   29.73F
WICHITA MCCONL DRIZZLE   64  52  63 NW12G18   29.73F
WINFIELD       MOSUNNY   67  55  65 NW14      29.74F
$$

KSZ007>012-019>026-033>040-048>060-102>105-192000-
NORTHEAST KANSAS

CITY           SKY/WX    TMP DP  RH WIND       PRES   REMARKS
CONCORDIA      CLOUDY    50  38  63 N25G33    29.83S
EMPORIA        CLOUDY    66  51  58 NW12      29.69F
LAWRENCE       PTSUNNY   66  55  67 NW13      29.66F
MANHATTAN      LGT RAIN  55  50  83 N10G22    29.76R
MARYSVILLE     CLOUDY    52  46  82 N22G28    29.76R
OLATHE IND     PTSUNNY   67  52  58 W17G24    29.66F
OLATHE EXE     PTSUNNY   67  54  63 W10G18    29.65F
SALINA         LGT RAIN  50  46  86 NW31G45   29.83R FOG
TOPEKA BILLARD CLOUDY    64  53  67 NW17G23   29.69F
TOPEKA FORBES  CLOUDY    66  52  60 NW18G25   29.67F
$$


USA.gov is the U.S. government's official web portal to all federal, state and local government web resources and services.